#timestamp,LO_Frequency,Hit,StdDev 
1675306815.6,286046998.2,N
1675306835.5,286047000.7,N
1675306855.3,286047000.7,N
1675306875.1,286047004.1,N
1675306895.9,286047004.0,N
1675306915.7,286047000.0,N
1675306935.6,286046998.7,N
1675306955.4,286046996.8,N
1675306975.2,286047001.4,N
1675306995.1,286047003.0,N
1675306996.0,286047003.0,N
1675307015.8,286047003.2,N
1675307035.7,286047002.1,N
1675307055.5,286047002.5,N
1675307075.3,286047005.9,N
1675307095.2,286047007.6,N
1675307115.0,286047007.3,N
1675307115.9,286047007.3,N
1675307135.8,286047006.6,N
1675307155.6,286047008.7,Y
1675307175.5,286047007.3,P
1675307195.3,286047006.8,N
1675307215.1,286047005.2,N
1675307235.9,286047003.6,N
1675307255.7,286047004.4,N
1675307275.5,286047004.9,N
1675307295.4,286047001.7,N
1675307315.2,286047004.1,N
1675307335.1,286047002.1,N
1675307336.0,286047002.1,N
1675307355.8,286047000.2,N
1675307375.6,286047002.8,N
1675307395.5,286047003.7,N
1675307415.3,286047001.8,N
1675307435.2,286047001.3,N
1675307455.9,286047002.3,N
1675307475.7,286047003.6,N
1675307495.6,286047005.6,Y
1675307515.4,286047001.5,P
1675307535.2,286047002.0,N
1675307555.1,286046997.8,N
1675307556.0,286046997.8,N
1675307575.8,286046999.4,N
1675307595.7,286046996.8,N
1675307615.5,286046998.1,N
1675307635.3,286047000.2,N
1675307655.2,286046998.1,N
1675307675.0,286047000.9,N
1675307675.9,286047000.9,N
1675307695.7,286047000.9,N
1675307715.6,286046999.8,N
1675307735.4,286047001.6,N
1675307755.3,286047002.6,N
1675307775.1,286047000.9,N
1675307776.0,286047000.9,N
1675307795.8,286046998.6,N
1675307815.7,286047001.1,N
1675307835.5,286047000.4,N
1675307855.3,286047000.7,N
1675307875.2,286047002.0,N
1675307895.0,286047001.2,N
1675307895.9,286047001.2,N
1675307915.8,286046998.6,N
1675307935.6,286047001.2,N
1675307955.5,286046998.8,N
1675307975.3,286046999.7,N
1675307995.1,286047000.7,N
1675308015.9,286047002.8,N
1675308035.7,286047001.0,N
1675308055.5,286046998.8,N
1675308075.4,286046996.9,N
1675308095.2,286046996.3,N
1675308115.1,286046993.5,Y
1675308116.0,286046993.5,P
1675308135.8,286046995.1,N
1675308155.6,286046998.3,N
1675308175.5,286047001.2,N
1675308195.3,286047001.2,N
1675308215.1,286046995.5,N
1675308235.9,286046998.8,N
1675308255.7,286047001.0,N
1675308275.6,286047000.3,N
1675308295.4,286047000.5,N
1675308315.2,286047002.3,N
1675308335.1,286046998.8,N
1675308336.0,286046998.8,N
1675308355.8,286047002.7,N
1675308375.6,286047002.5,N
1675308395.5,286047002.8,N
1675308415.3,286047000.0,N
1675308435.2,286047000.5,N
1675308455.0,286047002.1,N
1675308455.9,286047002.1,N
1675308475.7,286047000.3,N
1675308495.6,286046997.3,N
1675308515.4,286046997.3,N
1675308535.3,286046998.3,N
1675308555.1,286046999.3,N
1675308575.8,286046996.6,N
1675308595.7,286046998.1,N
1675308615.5,286047000.4,N
1675308635.4,286046997.9,N
1675308655.2,286046996.7,N
1675308675.0,286046998.9,N
1675308675.9,286046998.9,N
1675308695.8,286047000.1,N
1675308715.6,286046999.9,N
1675308735.5,286047000.3,N
1675308755.3,286047000.3,N
1675308775.1,286046998.8,N
1675308795.9,286046997.7,N
1675308815.7,286046997.1,N
1675308835.5,286046999.5,N
1675308855.4,286046998.3,N
1675308875.2,286046999.4,N
1675308895.1,286046998.4,N
1675308896.0,286046998.4,N
1675308915.8,286047000.9,N
1675308935.6,286046999.2,N
1675308955.5,286046998.6,N
1675308975.3,286046999.8,N
1675308995.1,286047003.8,N
1675309015.9,286047002.5,N
1675309035.7,286047000.6,N
1675309055.6,286047000.8,N
1675309075.4,286046999.3,N
1675309095.2,286046999.1,N
1675309115.1,286046997.5,N
1675309116.0,286046997.5,N
1675309135.8,286046999.1,N
1675309155.7,286046998.5,N
1675309175.5,286046996.7,N
1675309195.3,286046999.3,N
1675309215.2,286046997.2,N
1675309235.0,286046997.4,N
1675309235.9,286046997.4,N
1675309255.7,286046995.1,Y
1675309275.6,286046996.2,P
1675309295.4,286046993.9,P
1675309315.3,286046996.0,N
1675309335.1,286046996.5,N
1675309336.0,286046996.5,N
1675309355.8,286047002.7,N
1675309375.7,286047003.5,N
1675309395.5,286047001.6,N
1675309415.3,286047000.7,N
1675309435.2,286046998.4,N
1675309455.0,286046998.1,N
1675309455.9,286046998.1,N
1675309475.8,286047000.7,N
1675309495.6,286046998.2,N
1675309515.4,286046998.2,N
1675309535.3,286046999.4,N
1675309555.1,286046995.1,N
1675309575.9,286046995.3,N
1675309595.7,286046999.1,N
1675309615.5,286046998.1,N
1675309635.4,286046996.8,N
1675309655.2,286046995.1,N
1675309675.0,286046994.0,N
1675309675.9,286046994.0,N
1675309695.8,286046995.6,N
1675309715.6,286046996.9,N
1675309735.5,286047001.1,N
1675309755.3,286047000.1,N
1675309775.1,286047000.6,N
1675309795.9,286046998.1,N
1675309815.7,286046998.6,N
1675309835.5,286046995.5,N
1675309855.4,286046995.0,N
1675309875.2,286046999.5,N
1675309895.1,286046997.0,N
1675309896.0,286046997.0,N
1675309915.8,286046997.6,N
1675309935.6,286046993.4,Y
1675309955.5,286046997.2,P
1675309975.3,286046999.4,N
1675309995.2,286047000.6,N
1675310015.1,286047002.6,N
1675310035.8,286047001.3,N
1675310055.7,286047006.0,Y
1675310075.5,286047005.5,P
1675310095.4,286047006.0,N
1675310115.2,286047001.3,N
1675310135.0,286047001.5,N
1675310135.9,286047001.5,N
1675310155.8,286047002.5,N
1675310175.6,286046998.5,N
1675310195.5,286046999.3,N
1675310215.3,286046999.3,N
1675310235.1,286046998.3,N
1675310255.9,286047000.7,N
1675310275.7,286046998.3,N
1675310295.5,286047002.8,N
1675310315.4,286046998.2,N
1675310335.2,286046997.8,N
1675310355.1,286046997.6,N
1675310356.0,286046997.6,N
1675310375.8,286046997.5,N
1675310395.6,286046999.4,N
